Regional Weather Roundup
Issued by NWS Mobile, AL

Home | Current Version | Previous Version | Text Only | Print | Product List | Glossary On
Versions: 1 2 3 4 5 6 7 8 9 10 11 12 13 14 15 16 17 18 19 20 21 22 23 24 25 26 27
000
ASUS44 KMOB 092312
RWRMOB
REGIONAL WEATHER ROUNDUP
NATIONAL WEATHER SERVICE MOBILE AL
500 PM CST FRI DEC 09 2016

NOTE: "FAIR" INDICATES FEW OR NO CLOUDS BELOW 12,000 FEET WITH NO
      SIGNIFICANT WEATHER AND/OR OBSTRUCTIONS TO VISIBILITY.

  * THESE STATIONS ARE PART OF THE UNIVERSITY OF SOUTH ALABAMA
    MESONET AND ARE NOT UNDER NWS OR FAA QUALITY CONTROL.

ALZ061>064-100000-
COASTAL ALABAMA

CITY           SKY/WX    TMP DP  RH WIND       PRES   REMARKS
MOBILE REG APT CLEAR     43  19  38 N8        30.48R
BROOKLEY FIELD CLEAR     47  19  33 N9        30.48R
USA CAMPUS*      N/A     43  27  52 CALM      30.47R
DOG RIVER*       N/A     45  21  39 N5        31.36R


CITY           SKY/WX    TMP DP  RH WIND       PRES   REMARKS
GULF SHORES    CLEAR     46  22  39 N5        30.45S

$$

ALZ051>060-100000-
INTERIOR SOUTHWEST AND SOUTH CENTRAL ALABAMA

CITY           SKY/WX    TMP DP  RH WIND       PRES   REMARKS
GREENVILLE     CLEAR     43  16  33 N6        30.45R
EVERGREEN      CLEAR     43  19  38 N3        30.47R
ATMORE*          N/A     41  23  48 N7        30.48R
ANDALUSIA/OPP  CLEAR     47  17  30 N6        30.45R
ANDALUSIA*       N/A     45  18  33 VRB5      30.43R
FLORALA APT    CLEAR     42  21  43 CALM      30.46R
FLORALA*         N/A     43  25  49 CALM      31.30R

$$

FLZ001>006-100000-
WESTERN FLORIDA PANHANDLE

CITY           SKY/WX    TMP DP  RH WIND       PRES   REMARKS
PENSACOLA      CLEAR     48  19  31 N9        30.44R
NAS PENSACOLA  CLEAR     47  20  34 N6        30.44R
MILTON         PTCLDY    44  20  38 N5        30.45R
WHTNG S FIELD  PTCLDY    48  20  32 N8        30.46R


CITY           SKY/WX    TMP DP  RH WIND       PRES   REMARKS
JAY*             N/A     45  18  33 N5        30.46R
DUKE FIELD     PTCLDY    45  19  36 N6        30.43R
CRESTVIEW      CLEAR     45  20  36 N5        30.46R
VALPARAISO     PTCLDY    47  18  31 N8        30.44R
DESTIN         CLEAR     51  19  28 N8        30.43R

$$

MSZ076-079-100000-
INTERIOR SOUTHEAST MISSISSIPPI

CITY           SKY/WX    TMP DP  RH WIND       PRES   REMARKS
LEAKESVILLE*   NOT AVBL
AGRICOLA*      NOT AVBL

$$

MARINE OBSERVATIONS

STATION/POSITION TIME  TEMP    WIND        PRES    WAVE
                       AIR SEA DIR/SP/G            HT/PER
                 (UTC) (F)     (DEG/KT/KT) (MB)    (FT/S)
PASCAGOULA       2248   48      10/ 12/ 14 1031.5R
PETIT BOIS ISLND 2248   48      20/ 14/ 19 1032.0R
GRAND BAY        2130   49      10/ 11     1032.0S
KATRINA CUT      2200   47      20/ 14     1030.5
CEDAR POINT      2230   48      30/ 10     1030.8R
E DAUPHIN ISLAND 2200   49      10/ 16/ 19 1031.0R
MIDDLE BAY LIGHT 2200          360/ 17     1030.8
USCG MOBILE BAY  2248   47 59  350/  6/ 10 1032.4R
STATE DOCKS      2236   48 61              1031.6R
MEAHER PARK      2230   48      20/  6     1031.8R
WEEKS BAY        2145   49                   N/A
12 S ORANGE BCH  2250   51 69   10/ 14/ 19 1030.7F   2/ 4
PENSACOLA BAY    2248           10/  5/ 10   N/A
64 S DAUPHIN ISL 2250   54 74   20/ 19/ 25 1030.2R   5/ 7
67 S FORT MORGAN 2230   54      30/ 17     1029.1S

$$

SELECTED LOCATIONS ACROSS THE REGION

CITY           SKY/WX    TMP DP  RH WIND       PRES   REMARKS
NEW ORLEANS    CLEAR     50  24  36 NE9       30.48R
GULFPORT       CLEAR     47  20  34 N6        30.48R
PASCAGOULA AP  CLEAR     44  18  35 N6        30.47R
PASCAGOULA*    NOT AVBL
HATTIESBURG    CLEAR     45  16  31 N8        30.51R
LAUREL         CLEAR     43  16  33 N7        30.52R
MERIDIAN       CLEAR     41  17  38 N7        30.53R
JACKSON        CLEAR     39  19  44 N6        30.52F
MONTGOMERY     CLEAR     43  14  31 N7        30.49R
TROY           CLEAR     42  18  37 NW6       30.46R
ASHFORD*         N/A     45  18  33 VRB5      30.43R
DOTHAN         CLEAR     43  27  53 N5        30.47R
PANAMA CITY    CLEAR     46  24  42 N8        30.41R

$$





USA.gov is the U.S. government's official web portal to all federal, state and local government web resources and services.